TAN08 VNKT-VNLK

Flight info

Callsign TAN08
Flight time 0h 33m
Altitude 12500
Route IGRIS1E KIMTI DCT 273517N0862843E 273323N0863512E 273549N0864050E DCT 274039N0864249E DCT 274109N0864339E
Aircraft C414/L-SDFGRY/C

Departure

Time 2026-04-14 16:47
Airport Tribhuvan International Airport (VNKT)

Arrival

Time 2026-04-14 17:20
Airport Tenzing-Hillary Airport (VNLK)
Time Latitude Longitude Altitude Speed Heading
2026-04-14 16:01 27.69709 85.36240 4365 ft 0 kts 163°
2026-04-14 16:35 27.69705 85.36245 4360 ft 4 kts 95°
2026-04-14 16:35 27.69753 85.36252 4366 ft 14 kts
2026-04-14 16:35 27.69840 85.36238 4368 ft 11 kts 344°
2026-04-14 16:35 27.69924 85.36208 4361 ft 17 kts 340°
2026-04-14 16:36 27.70031 85.36172 4371 ft 9 kts 338°
2026-04-14 16:36 27.70075 85.36151 4372 ft 5 kts 338°
2026-04-14 16:36 27.70149 85.36121 4374 ft 22 kts 343°
2026-04-14 16:36 27.70170 85.36032 4360 ft 15 kts 220°
2026-04-14 16:37 27.70064 85.35982 4362 ft 17 kts 201°
2026-04-14 16:37 27.69925 85.35918 4367 ft 27 kts 202°
2026-04-14 16:37 27.69747 85.35836 4353 ft 28 kts 202°
2026-04-14 16:37 27.69565 85.35752 4359 ft 27 kts 203°
2026-04-14 16:38 27.69400 85.35676 4349 ft 25 kts 199°
2026-04-14 16:38 27.69247 85.35606 4349 ft 23 kts 204°
2026-04-14 16:38 27.69122 85.35553 4345 ft 13 kts 188°
2026-04-14 16:38 27.69103 85.35554 4345 ft 0 kts 170°
2026-04-14 16:42 27.69092 85.35558 4344 ft 11 kts 155°
2026-04-14 16:42 27.69077 85.35645 4342 ft 0 kts 24°
2026-04-14 16:46 27.69218 85.35707 4347 ft 51 kts 21°
2026-04-14 16:46 27.69715 85.35936 4365 ft 101 kts 19°
2026-04-14 16:47 27.70407 85.36238 4589 ft 118 kts 20°
2026-04-14 16:47 27.71243 85.36625 4724 ft 140 kts 21°
2026-04-14 16:47 27.72154 85.37059 5011 ft 142 kts 26°
2026-04-14 16:47 27.72959 85.37715 5336 ft 144 kts 43°
2026-04-14 16:48 27.73576 85.38610 5662 ft 145 kts 60°
2026-04-14 16:48 27.73944 85.39671 5991 ft 147 kts 77°
2026-04-14 16:48 27.74035 85.40818 6324 ft 147 kts 87°
2026-04-14 16:48 27.74044 85.41977 6634 ft 148 kts 86°
2026-04-14 16:49 27.74013 85.43128 6920 ft 150 kts 96°
2026-04-14 16:49 27.73726 85.44258 7241 ft 150 kts 110°
2026-04-14 16:49 27.73207 85.45279 7555 ft 151 kts 125°
2026-04-14 16:49 27.72477 85.46126 7880 ft 151 kts 139°
2026-04-14 16:50 27.71584 85.46746 8195 ft 151 kts 154°
2026-04-14 16:50 27.70577 85.47090 8475 ft 152 kts 168°
2026-04-14 16:50 27.69525 85.47150 8783 ft 152 kts 181°
2026-04-14 16:50 27.68480 85.46995 9083 ft 152 kts 191°
2026-04-14 16:51 27.67472 85.46633 9395 ft 152 kts 201°
2026-04-14 16:51 27.66535 85.46077 9693 ft 153 kts 211°
2026-04-14 16:51 27.65694 85.45342 9992 ft 153 kts 220°
2026-04-14 16:51 27.64976 85.44452 10295 ft 154 kts 231°
2026-04-14 16:52 27.64411 85.43446 10590 ft 155 kts 240°
2026-04-14 16:52 27.64003 85.42330 10881 ft 155 kts 250°
2026-04-14 16:52 27.63880 85.41117 11182 ft 156 kts 269°
2026-04-14 16:52 27.64142 85.39940 11450 ft 159 kts 302°
2026-04-14 16:53 27.65020 85.39223 11764 ft 158 kts 330°
2026-04-14 16:53 27.66020 85.38702 12064 ft 158 kts 334°
2026-04-14 16:53 27.67098 85.38422 12328 ft 161 kts 354°
2026-04-14 16:53 27.68225 85.38583 12494 ft 170 kts 10°
2026-04-14 16:54 27.69424 85.38913 12509 ft 184 kts 11°
2026-04-14 16:54 27.70697 85.39311 12506 ft 195 kts 14°
2026-04-14 16:54 27.71942 85.39966 12473 ft 203 kts 36°
2026-04-14 16:54 27.72708 85.41276 12473 ft 208 kts 71°
2026-04-14 16:55 27.72700 85.42890 12467 ft 210 kts 105°
2026-04-14 16:55 27.71977 85.44315 12486 ft 211 kts 127°
2026-04-14 16:55 27.70994 85.45545 12491 ft 212 kts 131°
2026-04-14 16:55 27.69960 85.46711 12474 ft 207 kts 141°
2026-04-14 16:56 27.68685 85.47301 12480 ft 193 kts 165°
2026-04-14 16:56 27.67436 85.47727 12511 ft 184 kts 152°
2026-04-14 16:56 27.66351 85.48454 12506 ft 180 kts 142°
2026-04-14 16:56 27.65327 85.49285 12498 ft 182 kts 142°
2026-04-14 16:57 27.64300 85.50124 12492 ft 182 kts 141°
2026-04-14 16:57 27.63274 85.50965 12492 ft 184 kts 141°
2026-04-14 16:57 27.62469 85.52049 12532 ft 183 kts 107°
2026-04-14 16:57 27.62465 85.53466 12518 ft 184 kts 75°
2026-04-14 16:58 27.62649 85.54881 12488 ft 186 kts 84°
2026-04-14 16:58 27.62490 85.56316 12487 ft 185 kts 102°
2026-04-14 16:58 27.62117 85.57699 12490 ft 184 kts 105°
2026-04-14 16:58 27.61736 85.59073 12493 ft 184 kts 104°
2026-04-14 16:59 27.61368 85.60448 12491 ft 183 kts 104°
2026-04-14 16:59 27.61003 85.61826 12494 ft 183 kts 103°
2026-04-14 16:59 27.60876 85.63235 12507 ft 182 kts 87°
2026-04-14 16:59 27.60855 85.64662 12500 ft 182 kts 89°
2026-04-14 17:00 27.60820 85.66089 12499 ft 182 kts 89°
2026-04-14 17:00 27.60789 85.67521 12497 ft 183 kts 89°
2026-04-14 17:00 27.60758 85.68934 12493 ft 183 kts 89°
2026-04-14 17:00 27.60727 85.70371 12491 ft 183 kts 89°
2026-04-14 17:01 27.60696 85.71800 12492 ft 183 kts 89°
2026-04-14 17:01 27.60664 85.73235 12489 ft 183 kts 89°
2026-04-14 17:01 27.60633 85.74668 12490 ft 183 kts 89°
2026-04-14 17:01 27.60601 85.76099 12490 ft 183 kts 89°
2026-04-14 17:02 27.60568 85.77534 12491 ft 183 kts 89°
2026-04-14 17:02 27.60537 85.78972 12493 ft 184 kts 89°
2026-04-14 17:02 27.60504 85.80416 12495 ft 184 kts 89°
2026-04-14 17:02 27.60472 85.81861 12490 ft 185 kts 89°
2026-04-14 17:03 27.60437 85.83289 12487 ft 185 kts 91°
2026-04-14 17:03 27.59956 85.84649 12469 ft 195 kts 128°
2026-04-14 17:03 27.58956 85.85702 12497 ft 199 kts 137°
2026-04-14 17:03 27.57940 85.86782 12511 ft 203 kts 131°
2026-04-14 17:04 27.56981 85.87968 12511 ft 206 kts 129°
2026-04-14 17:04 27.56024 85.89175 12511 ft 208 kts 129°
2026-04-14 17:04 27.55428 85.90625 12537 ft 208 kts 93°
2026-04-14 17:04 27.55507 85.92260 12505 ft 211 kts 82°
2026-04-14 17:05 27.55470 85.93922 12486 ft 212 kts 96°
2026-04-14 17:05 27.55182 85.95551 12491 ft 212 kts 100°
2026-04-14 17:05 27.54866 85.97175 12499 ft 213 kts 99°
2026-04-14 17:05 27.54583 85.98793 12499 ft 214 kts 98°
2026-04-14 17:06 27.54302 86.00440 12491 ft 214 kts 98°
2026-04-14 17:06 27.54014 86.02083 12491 ft 214 kts 99°
2026-04-14 17:06 27.53727 86.03726 12493 ft 214 kts 98°
2026-04-14 17:06 27.53439 86.05374 12494 ft 214 kts 99°
2026-04-14 17:07 27.53151 86.07021 12492 ft 214 kts 99°
2026-04-14 17:07 27.52863 86.08668 12494 ft 214 kts 99°
2026-04-14 17:07 27.52574 86.10317 12490 ft 215 kts 99°
2026-04-14 17:07 27.52286 86.11967 12492 ft 215 kts 98°
2026-04-14 17:08 27.51997 86.13623 12491 ft 215 kts 98°
2026-04-14 17:08 27.51707 86.15273 12491 ft 215 kts 98°
2026-04-14 17:08 27.51421 86.16906 12490 ft 216 kts 98°
2026-04-14 17:08 27.51131 86.18563 12494 ft 216 kts 99°
2026-04-14 17:09 27.50837 86.20227 12489 ft 217 kts 99°
2026-04-14 17:09 27.50545 86.21889 12487 ft 217 kts 98°
2026-04-14 17:09 27.50255 86.23553 12488 ft 216 kts 98°
2026-04-14 17:09 27.49962 86.25208 12493 ft 215 kts 98°
2026-04-14 17:10 27.49926 86.26873 12528 ft 213 kts 78°
2026-04-14 17:10 27.50407 86.28444 12514 ft 213 kts 60°
2026-04-14 17:10 27.51058 86.29925 12503 ft 214 kts 61°
2026-04-14 17:10 27.51712 86.31438 12499 ft 215 kts 61°
2026-04-14 17:11 27.52368 86.32949 12498 ft 215 kts 61°
2026-04-14 17:11 27.53025 86.34461 12495 ft 215 kts 61°
2026-04-14 17:11 27.53681 86.35976 12490 ft 215 kts 61°
2026-04-14 17:11 27.54337 86.37492 12493 ft 215 kts 61°
2026-04-14 17:12 27.54994 86.39006 12491 ft 215 kts 61°
2026-04-14 17:12 27.55651 86.40520 12491 ft 215 kts 61°
2026-04-14 17:12 27.56308 86.42036 12489 ft 215 kts 61°
2026-04-14 17:12 27.56963 86.43548 12493 ft 214 kts 61°
2026-04-14 17:13 27.57607 86.45038 12491 ft 215 kts 61°
2026-04-14 17:13 27.58243 86.46547 12484 ft 210 kts 65°
2026-04-14 17:13 27.58510 86.48146 12473 ft 207 kts 87°
2026-04-14 17:13 27.58285 86.49722 12476 ft 204 kts 105°
2026-04-14 17:14 27.57831 86.51221 12491 ft 199 kts 105°
2026-04-14 17:14 27.57408 86.52699 12487 ft 198 kts 105°
2026-04-14 17:14 27.56976 86.54178 12397 ft 200 kts 106°
2026-04-14 17:14 27.56537 86.55657 12275 ft 198 kts 106°
2026-04-14 17:15 27.56108 86.57123 12133 ft 201 kts 105°
2026-04-14 17:15 27.55938 86.58665 12028 ft 199 kts 82°
2026-04-14 17:15 27.56299 86.60165 11886 ft 199 kts 62°
2026-04-14 17:15 27.56918 86.61568 11704 ft 200 kts 61°
2026-04-14 17:16 27.57523 86.62979 11538 ft 198 kts 61°
2026-04-14 17:16 27.58084 86.64293 11382 ft 172 kts 61°
2026-04-14 17:16 27.58574 86.65436 11249 ft 155 kts 61°
2026-04-14 17:16 27.59033 86.66498 11132 ft 147 kts 61°
2026-04-14 17:17 27.59488 86.67517 11019 ft 144 kts 54°
2026-04-14 17:17 27.60186 86.68224 11007 ft 131 kts 23°
2026-04-14 17:17 27.60999 86.68569 10990 ft 124 kts 16°
2026-04-14 17:17 27.61789 86.68901 10988 ft 120 kts 16°
2026-04-14 17:18 27.62562 86.69218 10992 ft 118 kts 16°
2026-04-14 17:18 27.63336 86.69536 11013 ft 119 kts 17°
2026-04-14 17:18 27.64158 86.69874 10783 ft 133 kts 16°
2026-04-14 17:18 27.65029 86.70233 10468 ft 134 kts 16°
2026-04-14 17:19 27.65872 86.70581 10150 ft 123 kts 16°
2026-04-14 17:19 27.66622 86.70892 9870 ft 110 kts 16°
2026-04-14 17:19 27.67327 86.71180 9620 ft 106 kts 17°
2026-04-14 17:19 27.67958 86.71627 9382 ft 113 kts 40°
2026-04-14 17:20 27.68411 86.72357 9213 ft 111 kts 63°
2026-04-14 17:20 27.68736 86.73051 9375 ft 79 kts 68°
2026-04-14 17:20 27.68795 86.73189 9403 ft 2 kts 294°
2026-04-14 17:20 27.68771 86.73172 9404 ft 6 kts 158°
2026-04-14 17:21 27.68741 86.73163 9404 ft 0 kts 238°